Regional Weather Roundup
Issued by NWS

Home | Current Version | Previous Version | Text Only | Print | Product List | Glossary Off
Versions: 1 2 3 4 5 6 7 8 9 10 11 12 13 14 15 16 17 18 19 20 21 22 23 24 25 26 27 28 29 30 31 32 33 34 35 36 37 38 39 40 41 42 43 44 45 46 47 48 49 50

712
ASUS45 KBOU 222107
RWRCO

WEATHER ROUNDUP FOR COLORADO
NATIONAL WEATHER SERVICE DENVER/BOULDER CO
200 PM MST SUN JAN 22 2017

NOTE: "FAIR" INDICATES FEW OR NO CLOUDS BELOW 12000 FEET WITH NO
SIGNIFICANT WEATHER AND/OR OBSTRUCTIONS TO VISIBILITY.

COZ001>005-013-030-031-222200-
...NORTHWEST COLORADO...

CITY           SKY/WX    TMP DP  RH WIND       PRES   REMARKS
CRAIG          FAIR      25  15  66 CALM      29.98F
HAYDEN         FAIR      27  16  63 SE6       29.97F WCI  20
MEEKER         FAIR      31  16  54 S9        29.97F WCI  23
MOUNT WERNER   NOT AVBL
STEAMBOAT SPGS CLOUDY    28  15  59 N5        29.98F WCI  22
WALDEN           N/A     23  12  63 S10       29.94F WCI  12
$$

COZ006>008-011-222200-
...WEST CENTRAL VALLEYS...

CITY           SKY/WX    TMP DP  RH WIND       PRES   REMARKS
GRAND JUNCTION FAIR      41  24  51 S20       30.01F
MONTROSE       FAIR      36  14  40 N5        30.05F
EAGLE          SUNNY     32  14  47 W9G25     30.01F WCI  24
RIFLE          FAIR      35  20  54 CALM      30.01F
DELTA          FAIR      41  21  44 NE7       30.05F
NUCLA          CLOUDY    32  27  80 CALM      30.08F
$$

COZ017>023-064>068-222200-
...SOUTHWEST COLORADO...

CITY           SKY/WX    TMP DP  RH WIND       PRES   REMARKS
DURANGO        FAIR      27  18  69 NE6       30.09F WCI  20
CORTEZ         CLOUDY    31  23  72 CALM      30.08F
PAGOSA SPRINGS PTSUNNY   28  16  60 CALM      30.08F
TELLURIDE      CLOUDY    27   4  37 SE7       30.02F WCI  20
WOLF CREEK PAS CLOUDY    10   9  92 S12G18    30.03F WCI  -4
$$

COZ009-010-012-014-032>034-037-058>063-222200-
...CENTRAL COLORADO...

CITY           SKY/WX    TMP DP  RH WIND       PRES   REMARKS
ASPEN          FAIR      28  13  53 CALM      29.97F
BUENA VISTA    FAIR      30   3  31 W20G30    29.91F WCI  17
COPPER MTN     NOT AVBL
BERTHOUD PASS  NOT AVBL
COTTONWOOD PAS FAIR      28  -6  22 SW8G29    29.92S WCI  20
GUNNISON       FAIR      22  13  68 NE6       30.04F WCI  14
KREMMLING      FAIR      34  14  44 SW7       29.99F WCI  28
LEADVILLE      FAIR      22   1  40 N7        29.92F WCI  13
MONARCH PASS   PTSUNNY    9   5  85 NW6       30.02S WCI  -1
SALIDA         FAIR      34   8  34 SW16G26   30.02F WCI  23
SUNLIGHT         N/A    N/A N/A N/A MISG      29.97F
WILKERSON PASS FAIR      19  -2  38 W6        29.92R WCI  11
$$

COZ069>075-222200-
...SAN LUIS VALLEY/SANGRE DE CRISTO MOUNTAINS...

CITY           SKY/WX    TMP DP  RH WIND       PRES   REMARKS
ALAMOSA        FAIR      28  17  63 SE12      30.02F WCI  18
LA VETA PASS   FAIR      27   9  46 NE31G45   29.90F WCI  10
SAGUACHE       FAIR      28  12  50 S7        30.02S WCI  21
$$

COZ035-036-038>040-222200-
...NORTHERN COLORADO FRONT RANGE...

CITY           SKY/WX    TMP DP  RH WIND       PRES   REMARKS
DENVER INTL AP FAIR      45   4  18 VRB3      29.89S
DMNS CITY PARK   N/A     46  -1  14 SW2G8     29.87S
AURORA         MOSUNNY   45   4  18 NE5       29.89F
FRONT RANGE AP NOT AVBL
ERIE MUNI ARPT FAIR      47  -1  13 CALM      29.88S
BOULDER MUN AP FAIR      46   5  18 SW5       29.86F
CENTENNIAL     FAIR      43   0  16 CALM      29.89S
BROOMFIELD     MOSUNNY   46   1  15 NW12      29.88F
FORT COLLINS   FAIR      46  10  23 SE7       29.88F
LONGMONT       FAIR      51   5  16 W6        29.89S
$$

COZ041-046-047-076>085-087-088-222200-
...PIKES PEAK/PALMER DIVIDE AND SOUTHERN FOOTHILLS...

CITY           SKY/WX    TMP DP  RH WIND       PRES   REMARKS
COLO. SPRINGS  PTSUNNY   43  -1  16 SE8       29.91F
A. F. ACADEMY  FAIR      45  -7  11 SW10G20   29.89S
SCHRIEVER AFB  NOT AVBL
ELLICOTT       FAIR     N/A N/A N/A VRB6      29.91S
FALCON         FAIR      43  -5  13 W12G17    29.92R
FORT CARSON    NOT AVBL
LIMON          FAIR      44  11  26 W8        29.91S
MONUMENT HILL  FAIR      37   0  20 CALM      29.91S
TRINIDAD       FAIR      41  13  31 NW3       29.94F
$$

COZ042>045-048>051-090-091-222200-
...NORTHEAST COLORADO...

CITY           SKY/WX    TMP DP  RH WIND       PRES   REMARKS
GREELEY ARPT   FAIR      48   9  20 SW5       29.89F
AKRON          FAIR      44  16  32 NW22G28   29.89S
BURLINGTON     FAIR      47  25  42 N17       29.90F
WRAY           NOT AVBL
STERLING       FAIR      46  19  34 NW17G25   29.87S
HOLYOKE        FAIR      52  23  32 NW14G21   29.88S
FORT MORGAN    FAIR      46  14  27 NW14G20   29.91S
$$

COZ086-089-092>099-222200-
...SOUTHEAST COLORADO...

CITY           SKY/WX    TMP DP  RH WIND       PRES   REMARKS
PUEBLO         FAIR      52   5  15 W12G18    29.90F
LA JUNTA       FAIR      45  26  47 S8        29.94F
LAMAR          FAIR      50  20  30 NW10      29.91S
SPRINGFIELD      N/A     48  21  34 N18G25    29.93S
$$




USA.gov is the U.S. government's official web portal to all federal, state and local government web resources and services.